AE5HO Weather Reports


Display with metric or nautical units.
time (UTC)temp
F
wind
direction
speed
MPH
gust
MPH
rain 1hr
in
rain 24hr
in
rain mn
in
humidity
%
barometer
mb
20260507111221 52 90 1.0 2.0 0.00 0.00 0.00 93 1020.1
20260507110717 52 66 0.0 1.0 0.00 0.00 0.00 93 1019.9
20260507110214 53 99 0.0 0.0 0.00 0.00 0.00 93 1019.8
20260507105711 53 180 0.0 1.0 0.00 0.00 0.00 93 1019.7
20260507105206 53 285 0.0 0.0 0.00 0.00 0.00 93 1019.7
20260507104704 52 98 0.0 2.0 0.00 0.00 0.00 94 1019.5
20260507104201 52 166 0.0 0.0 0.00 0.00 0.00 94 1019.6
20260507103656 52 240 0.0 1.0 0.00 0.00 0.00 93 1019.5
20260507103153 52 74 0.0 0.0 0.00 0.00 0.00 93 1019.3
20260507102650 52 74 0.0 0.0 0.00 0.00 0.00 93 1019.3
20260507102146 52 74 0.0 0.0 0.00 0.00 0.00 93 1018.9
20260507101642 52 74 0.0 0.0 0.00 0.00 0.00 93 1018.8
20260507101138 52 74 0.0 0.0 0.00 0.00 0.00 93 1018.7
20260507100635 52 99 0.0 0.0 0.00 0.00 0.00 93 1018.7
20260507100134 53 99 0.0 0.0 0.00 0.00 0.00 92 1018.9
20260507095631 53 99 0.0 0.0 0.00 0.00 0.00 92 1018.7
20260507095127 53 99 0.0 0.0 0.00 0.00 0.00 92 1018.6
20260507094624 53 99 0.0 0.0 0.00 0.00 0.00 91 1018.6
20260507094121 53 99 0.0 0.0 0.00 0.00 0.00 91 1018.3
20260507093618 53 90 0.0 0.0 0.00 0.00 0.00 91 1018.3
20260507093117 53 81 0.0 0.0 0.00 0.00 0.00 90 1018.5
20260507092613 54 81 0.0 0.0 0.00 0.00 0.00 90 1018.5
20260507092109 54 90 0.0 0.0 0.00 0.00 0.00 90 1018.4
20260507091606 54 165 0.0 0.0 0.00 0.00 0.00 90 1018.3
20260507091102 54 12 0.0 1.0 0.00 0.00 0.00 89 1017.7
20260507090558 54 90 0.0 0.0 0.00 0.00 0.00 89 1018.0
20260507090055 54 98 1.0 1.0 0.00 0.00 0.00 88 1017.9
20260507085552 55 90 0.0 1.0 0.00 0.00 0.00 88 1018.3
20260507085049 55 90 0.0 0.0 0.00 0.00 0.00 88 1018.3
20260507084546 55 90 0.0 1.0 0.00 0.00 0.00 87 1018.0
20260507084043 55 165 0.0 0.0 0.00 0.00 0.00 87 1018.2
20260507083539 55 90 0.0 0.0 0.00 0.00 0.00 87 1018.3
20260507083036 55 99 0.0 2.0 0.00 0.00 0.00 87 1018.3
20260507082532 56 75 1.0 1.0 0.00 0.00 0.00 86 1018.3
20260507082028 56 66 1.0 2.0 0.00 0.00 0.00 86 1018.4
20260507081525 56 180 0.0 2.0 0.00 0.00 0.00 86 1018.2
20260507081022 56 68 2.0 2.0 0.00 0.00 0.00 86 1018.3
20260507080518 56 90 0.0 1.0 0.00 0.00 0.00 86 1018.1
20260507080014 56 90 0.0 1.0 0.00 0.00 0.00 86 1018.0
20260507075510 56 123 0.0 2.0 0.00 0.00 0.00 86 1017.9
20260507075007 56 160 0.0 3.0 0.00 0.00 0.00 86 1018.0
20260507074503 56 85 0.0 2.0 0.00 0.00 0.00 85 1017.8
20260507074002 57 82 1.0 2.0 0.00 0.00 0.00 85 1017.8
20260507073457 57 116 0.0 4.0 0.00 0.00 0.00 85 1017.7
20260507072954 57 101 0.0 3.0 0.00 0.00 0.00 85 1017.8
20260507072452 57 180 0.0 4.0 0.00 0.00 0.00 84 1017.8
20260507071949 57 131 0.0 2.0 0.00 0.00 0.00 84 1017.6
20260507071446 57 90 0.0 2.0 0.00 0.00 0.00 84 1017.5
20260507070942 57 99 0.0 3.0 0.00 0.00 0.00 83 1017.6
20260507070440 57 77 0.0 3.0 0.00 0.00 0.00 83 1017.8
20260507065936 57 105 1.0 2.0 0.00 0.00 0.00 83 1017.5
20260507065433 57 83 0.0 2.0 0.00 0.00 0.00 83 1018.0
20260507064930 57 53 0.0 4.0 0.00 0.00 0.00 83 1017.7
20260507064429 57 90 0.0 1.0 0.00 0.00 0.00 82 1017.6
20260507063926 57 106 0.0 1.0 0.00 0.00 0.00 82 1017.6
20260507063423 57 90 2.0 3.0 0.00 0.00 0.00 82 1017.7
20260507062920 57 81 0.0 3.0 0.00 0.00 0.00 82 1017.6
20260507062417 57 90 0.0 2.0 0.00 0.00 0.00 82 1017.6
20260507061914 57 180 0.0 2.0 0.00 0.00 0.00 82 1017.6
20260507061413 57 90 0.0 2.0 0.00 0.00 0.00 81 1017.4
20260507060911 57 154 1.0 2.0 0.00 0.00 0.00 82 1017.2
20260507060407 57 84 0.0 3.0 0.00 0.00 0.00 82 1017.6
20260507055904 57 90 0.0 1.0 0.00 0.00 0.00 81 1017.4
20260507055359 57 84 0.0 2.0 0.00 0.00 0.00 81 1017.6
20260507054856 57 74 0.0 1.0 0.00 0.00 0.00 81 1017.5
20260507054352 57 90 0.0 1.0 0.00 0.00 0.00 80 1017.4
20260507053849 57 90 0.0 2.0 0.00 0.00 0.00 80 1017.2
20260507053347 57 90 0.0 0.0 0.00 0.00 0.00 80 1017.5
20260507052846 58 90 0.0 1.0 0.00 0.00 0.00 79 1017.2
20260507052342 58 90 0.0 2.0 0.00 0.00 0.00 79 1017.2
20260507051840 58 66 0.0 2.0 0.00 0.00 0.00 79 1017.1
20260507051337 58 157 0.0 3.0 0.00 0.00 0.00 79 1017.5
20260507050834 58 78 2.0 2.0 0.00 0.00 0.00 78 1017.2
20260507050330 58 90 0.0 2.0 0.00 0.00 0.00 78 1017.3
20260507045827 58 72 0.0 4.0 0.00 0.06 0.06 77 1017.4
20260507045324 58 111 0.0 2.0 0.00 0.06 0.06 77 1017.5
20260507044821 59 75 0.0 2.0 0.00 0.06 0.06 76 1017.5
20260507044318 59 184 2.0 3.0 0.00 0.06 0.06 76 1017.6
20260507043813 59 99 0.0 2.0 0.00 0.06 0.06 76 1017.5
20260507043310 59 203 0.0 3.0 0.00 0.06 0.06 75 1017.6
20260507042807 59 168 1.0 2.0 0.00 0.06 0.06 75 1017.8
20260507042306 59 180 0.0 4.0 0.00 0.06 0.06 75 1017.3
20260507041759 60 85 0.0 2.0 0.00 0.06 0.06 75 1017.6
20260507041256 60 71 0.0 2.0 0.00 0.06 0.06 75 1017.8
20260507040753 60 65 0.0 3.0 0.00 0.06 0.06 75 1017.6
20260507040249 60 173 0.0 3.0 0.00 0.06 0.06 75 1017.8
20260507035745 60 63 2.0 4.0 0.00 0.06 0.06 75 1017.4
20260507035240 60 101 0.0 4.0 0.00 0.06 0.06 75 1017.8
20260507034738 60 165 0.0 3.0 0.00 0.06 0.06 75 1017.5
20260507034235 60 188 0.0 4.0 0.00 0.06 0.06 75 1017.8
20260507033734 60 196 0.0 3.0 0.00 0.06 0.06 75 1017.9
20260507033231 60 166 0.0 4.0 0.00 0.06 0.06 75 1017.7
20260507032728 60 157 0.0 3.0 0.00 0.06 0.06 74 1017.8
20260507032224 60 195 0.0 4.0 0.00 0.06 0.06 74 1017.4
20260507031721 60 323 0.0 5.0 0.00 0.06 0.06 74 1017.6
20260507031217 60 176 2.0 5.0 0.00 0.06 0.06 74 1017.8
20260507030714 60 195 0.0 10.0 0.00 0.06 0.06 74 1017.6
20260507030212 60 198 1.0 5.0 0.00 0.06 0.06 74 1017.6
20260507025709 60 63 3.0 8.0 0.00 0.06 0.06 74 1017.5
20260507025206 60 90 1.0 8.0 0.00 0.06 0.06 74 1017.3
20260507024704 61 53 2.0 7.0 0.00 0.06 0.06 74 1016.9
20260507024201 61 74 2.0 7.0 0.00 0.06 0.06 74 1016.9
20260507023656 61 90 3.0 4.0 0.00 0.06 0.06 74 1017.1
20260507023154 61 49 3.0 11.0 0.00 0.06 0.06 74 1016.8
20260507022651 62 154 1.0 5.0 0.00 0.06 0.06 74 1016.7
20260507022146 62 148 0.0 6.0 0.00 0.06 0.06 74 1016.6
20260507021643 62 180 0.0 3.0 0.00 0.06 0.06 74 1016.2
20260507021138 62 180 1.0 4.0 0.00 0.06 0.06 74 1016.6
20260507020637 62 115 2.0 4.0 0.00 0.06 0.06 74 1016.4
20260507020132 62 90 1.0 4.0 0.00 0.06 0.06 74 1016.3
20260507015631 62 10 5.0 8.0 0.00 0.06 0.06 74 1016.3
20260507015128 62 73 4.0 8.0 0.00 0.06 0.06 74 1016.0
20260507014625 62 358 4.0 4.0 0.00 0.06 0.06 74 1016.0
20260507014121 62 166 2.0 3.0 0.00 0.06 0.06 75 1016.0
20260507013617 62 61 2.0 4.0 0.00 0.06 0.06 74 1015.5
20260507013114 62 166 0.0 2.0 0.00 0.06 0.06 74 1015.5
20260507012612 62 160 3.0 6.0 0.00 0.06 0.06 74 1015.3
20260507012107 62 248 3.0 7.0 0.00 0.06 0.06 74 1015.1
20260507011606 62 71 5.0 7.0 0.00 0.06 0.06 74 1015.1
20260507011101 62 29 1.0 5.0 0.00 0.06 0.06 74 1015.2
20260507010556 62 62 3.0 4.0 0.00 0.06 0.06 74 1015.1
20260507010052 62 121 2.0 5.0 0.00 0.06 0.06 74 1015.1
20260507005550 63 22 4.0 4.0 0.00 0.06 0.06 74 1015.0
20260507005046 63 166 2.0 6.0 0.00 0.06 0.06 74 1015.1
20260507004543 63 55 2.0 9.0 0.00 0.06 0.06 74 1014.8
20260507004041 63 99 3.0 5.0 0.00 0.06 0.06 73 1015.0
20260507003536 63 160 1.0 7.0 0.00 0.06 0.06 74 1015.1
20260507003032 63 165 0.0 6.0 0.00 0.06 0.06 74 1014.8
20260507002529 63 56 0.0 3.0 0.00 0.06 0.06 74 1015.1
20260507002025 63 177 0.0 4.0 0.00 0.06 0.06 74 1014.9
20260507001521 63 172 0.0 4.0 0.00 0.06 0.06 74 1014.7
20260507001019 64 180 2.0 4.0 0.00 0.06 0.06 73 1014.6
20260507000514 64 45 3.0 5.0 0.00 0.06 0.06 73 1014.6
20260507000010 64 35 0.0 3.0 0.00 0.06 0.06 73 1014.5
20260506235508 64 90 1.0 2.0 0.00 0.06 0.06 73 1014.6
20260506235003 64 149 4.0 4.0 0.00 0.06 0.06 73 1014.3
20260506234501 64 95 2.0 5.0 0.00 0.06 0.06 73 1014.2
20260506233958 64 294 0.0 6.0 0.00 0.06 0.06 73 1014.3
20260506233455 64 140 3.0 6.0 0.00 0.06 0.06 73 1014.3
20260506232951 64 73 3.0 4.0 0.00 0.06 0.06 72 1014.4
20260506232448 65 90 1.0 3.0 0.00 0.06 0.06 72 1014.1
20260506231943 65 26 2.0 3.0 0.00 0.06 0.06 72 1014.0
20260506231441 65 70 0.0 5.0 0.00 0.06 0.06 72 1014.1
20260506230938 65 148 3.0 3.0 0.00 0.06 0.06 72 1013.7
20260506230434 65 84 0.0 4.0 0.00 0.06 0.06 72 1013.9
20260506225931 65 51 3.0 6.0 0.00 0.06 0.06 72 1013.9
20260506225429 66 101 0.0 5.0 0.00 0.06 0.06 71 1014.1
20260506224925 67 5 0.0 3.0 0.00 0.06 0.06 71 1013.9
20260506224423 66 0 1.0 2.0 0.00 0.06 0.06 72 1013.8
20260506223919 66 135 0.0 2.0 0.00 0.06 0.06 71 1013.7
20260506223414 66 8 0.0 3.0 0.00 0.06 0.06 72 1013.9
20260506222912 66 90 2.0 4.0 0.00 0.06 0.06 71 1013.9
20260506222409 66 160 1.0 5.0 0.00 0.06 0.06 71 1014.0
20260506221906 66 140 0.0 4.0 0.00 0.06 0.06 71 1013.7
20260506221403 65 109 2.0 4.0 0.00 0.06 0.06 71 1013.7
20260506220900 66 146 0.0 4.0 0.00 0.06 0.06 71 1013.9
20260506220355 66 78 2.0 3.0 0.00 0.06 0.06 71 1014.1
20260506215852 64 93 3.0 6.0 0.00 0.06 0.06 72 1014.0
20260506215348 64 154 1.0 5.0 0.00 0.06 0.06 73 1014.0
20260506214844 63 90 1.0 4.0 0.00 0.06 0.06 73 1014.2
20260506214341 63 60 3.0 3.0 0.00 0.06 0.06 74 1013.8
20260506213839 63 82 4.0 6.0 0.00 0.06 0.06 73 1013.5
20260506213336 63 22 3.0 6.0 0.00 0.06 0.06 73 1013.7
20260506212833 63 350 2.0 6.0 0.00 0.06 0.06 72 1013.7
20260506212329 64 101 2.0 4.0 0.00 0.06 0.06 72 1014.1
20260506211824 63 48 2.0 4.0 0.00 0.06 0.06 73 1014.1
20260506211321 63 36 0.0 5.0 0.00 0.06 0.06 73 1014.1
20260506210818 63 35 1.0 4.0 0.00 0.06 0.06 72 1014.2
20260506210315 64 70 3.0 3.0 0.00 0.06 0.06 72 1014.3
20260506205812 63 82 4.0 5.0 0.00 0.06 0.06 73 1014.1
20260506205308 63 75 0.0 3.0 0.00 0.06 0.06 73 1014.1
20260506204804 62 36 0.0 3.0 0.00 0.06 0.06 72 1014.3
20260506204302 63 161 2.0 4.0 0.00 0.06 0.06 72 1014.0
20260506203800 63 25 3.0 5.0 0.00 0.06 0.06 72 1014.0
20260506203257 63 123 0.0 3.0 0.00 0.06 0.06 73 1014.6
20260506202754 63 270 3.0 4.0 0.00 0.06 0.06 73 1014.4
20260506202251 63 5 0.0 3.0 0.00 0.06 0.06 72 1014.6
20260506201747 62 57 2.0 5.0 0.00 0.06 0.06 73 1014.4
20260506201244 62 229 2.0 4.0 0.00 0.06 0.06 73 1014.2
20260506200741 62 26 0.0 3.0 0.00 0.06 0.06 73 1014.7
20260506200238 62 165 2.0 5.0 0.00 0.06 0.06 74 1014.8
20260506195734 62 106 0.0 2.0 0.00 0.06 0.06 73 1015.0
20260506195230 62 45 3.0 5.0 0.00 0.06 0.06 73 1014.9
20260506194728 61 65 0.0 5.0 0.00 0.06 0.06 75 1015.1
20260506194224 60 41 2.0 4.0 0.00 0.06 0.06 75 1015.2
20260506193722 61 38 2.0 3.0 0.00 0.06 0.06 75 1015.2
20260506193219 60 90 0.0 2.0 0.00 0.06 0.06 76 1015.4
20260506192715 60 185 2.0 6.0 0.00 0.06 0.06 76 1015.5
20260506192212 60 77 0.0 3.0 0.00 0.06 0.06 75 1015.1
20260506191709 60 5 1.0 5.0 0.00 0.06 0.06 77 1015.2
20260506191205 60 61 0.0 3.0 0.00 0.06 0.06 77 1015.5
20260506190703 60 98 0.0 3.0 0.00 0.06 0.06 77 1015.5
20260506190159 59 106 0.0 3.0 0.00 0.06 0.06 77 1015.4
20260506185656 59 139 0.0 3.0 0.00 0.06 0.06 76 1015.4
20260506185152 59 71 3.0 5.0 0.00 0.06 0.06 77 1015.4
20260506184650 59 1 5.0 5.0 0.00 0.06 0.06 76 1015.0
20260506184147 60 114 0.0 2.0 0.00 0.06 0.06 77 1015.0
20260506183644 60 216 2.0 3.0 0.00 0.06 0.06 78 1014.4
20260506183140 59 70 2.0 5.0 0.00 0.06 0.06 79 1013.9
20260506182637 58 60 5.0 5.0 0.00 0.06 0.06 78 1014.0
20260506182134 58 81 6.0 7.0 0.00 0.06 0.06 78 1014.3
20260506181632 58 86 5.0 7.0 0.00 0.06 0.06 80 1014.0
20260506181129 58 83 4.0 7.0 0.00 0.06 0.06 79 1013.8
20260506180626 58 86 5.0 5.0 0.00 0.06 0.06 81 1014.2
20260506180122 58 126 0.0 6.0 0.00 0.06 0.06 80 1014.4
20260506175618 58 266 3.0 8.0 0.00 0.06 0.06 81 1014.8
20260506175114 57 180 2.0 5.0 0.00 0.06 0.06 83 1014.6
20260506174614 57 180 1.0 5.0 0.00 0.06 0.06 84 1014.6
20260506174110 56 74 2.0 4.0 0.00 0.06 0.06 84 1014.5
20260506173608 56 20 3.0 5.0 0.00 0.06 0.06 84 1014.9
20260506173104 56 81 0.0 3.0 0.00 0.06 0.06 85 1014.7
20260506172602 55 74 4.0 6.0 0.00 0.06 0.06 85 1014.5
20260506172057 55 61 2.0 6.0 0.00 0.06 0.06 86 1014.4
20260506171555 55 90 0.0 7.0 0.00 0.06 0.06 86 1014.3
20260506171053 55 67 2.0 5.0 0.00 0.06 0.06 87 1014.7
20260506170549 55 197 3.0 9.0 0.00 0.06 0.06 87 1014.9
20260506170047 55 80 2.0 4.0 0.00 0.06 0.06 88 1015.0
20260506165546 55 4 2.0 5.0 0.00 0.06 0.06 88 1015.1
20260506165042 54 84 3.0 5.0 0.00 0.06 0.06 88 1014.9
20260506164538 55 90 0.0 4.0 0.00 0.06 0.06 90 1015.2
20260506164036 55 66 1.0 5.0 0.00 0.06 0.06 90 1015.1
20260506163532 54 83 0.0 5.0 0.00 0.06 0.06 90 1015.2
20260506163028 55 82 0.0 9.0 0.00 0.06 0.06 91 1015.3
20260506162524 55 90 2.0 4.0 0.00 0.06 0.06 91 1015.4
20260506162021 55 105 1.0 1.0 0.00 0.06 0.06 90 1015.8
20260506161519 55 172 0.0 3.0 0.00 0.06 0.06 91 1015.6
20260506161015 55 86 2.0 3.0 0.00 0.06 0.06 91 1015.1
20260506160513 55 65 2.0 5.0 0.00 0.06 0.06 91 1015.0
20260506160011 54 0 2.0 4.0 0.02 0.06 0.06 92 1014.3
20260506155509 54 90 3.0 9.0 0.00 0.05 0.05 94 1014.2
20260506153640 54 75 1.0 3.0 0.02 0.05 0.05 94 1014.9
20260506153137 53 57 3.0 5.0 0.17 0.05 0.05 93 1015.1
20260506152634 53 90 2.0 3.0 0.17 0.04 0.04 92 1015.2
20260506152132 53 146 2.0 8.0 0.07 0.02 0.02 90 1015.5
20260506151630 54 286 0.0 1.0 0.07 0.02 0.02 88 1016.9
20260506151127 54 77 2.0 3.0 0.07 0.01 0.01 87 1016.7
20260506150624 54 262 0.0 1.0 0.00 0.00 0.00 86 1016.5
20260506150121 54 175 1.0 6.0 0.00 0.00 0.00 83 1016.0
20260506145618 55 81 2.0 4.0 0.00 0.00 0.00 83 1015.6
20260506145114 55 270 0.0 2.0 0.00 0.00 0.00 83 1015.9
20260506144611 55 318 0.0 4.0 0.00 0.00 0.00 83 1015.4
20260506144108 55 90 1.0 5.0 0.00 0.00 0.00 83 1014.8
20260506143606 55 12 1.0 5.0 0.00 0.00 0.00 83 1014.5
20260506143104 55 29 6.0 6.0 0.00 0.00 0.00 83 1014.1
20260506142602 54 57 5.0 5.0 0.00 0.00 0.00 83 1015.4
20260506142100 55 270 0.0 3.0 0.00 0.00 0.00 83 1015.6
20260506141557 55 341 2.0 5.0 0.00 0.00 0.00 82 1015.5
20260506141055 55 165 0.0 4.0 0.00 0.00 0.00 82 1015.3
20260506140552 54 90 1.0 4.0 0.00 0.00 0.00 82 1015.2
20260506140050 55 51 5.0 6.0 0.00 0.00 0.00 82 1014.8
20260506135546 55 90 2.0 5.0 0.00 0.00 0.00 82 1014.4
20260506135042 54 103 0.0 4.0 0.00 0.00 0.00 83 1014.6
20260506134539 54 96 1.0 7.0 0.00 0.00 0.00 83 1014.7
20260506134035 54 85 3.0 6.0 0.00 0.00 0.00 83 1014.3
20260506133532 54 358 3.0 7.0 0.00 0.00 0.00 83 1014.1
20260506133029 54 334 0.0 5.0 0.00 0.00 0.00 83 1014.4
20260506132526 54 54 3.0 7.0 0.00 0.00 0.00 83 1014.2
20260506132024 54 328 0.0 9.0 0.00 0.00 0.00 83 1014.1
20260506131521 54 332 0.0 4.0 0.00 0.00 0.00 82 1013.8
20260506131017 54 24 0.0 5.0 0.00 0.00 0.00 83 1014.0
20260506130514 54 331 4.0 6.0 0.00 0.00 0.00 83 1013.9
20260506130012 54 81 3.0 7.0 0.00 0.00 0.00 83 1013.7
20260506125510 54 103 1.0 6.0 0.00 0.00 0.00 83 1013.5
20260506125007 54 32 0.0 4.0 0.00 0.00 0.00 83 1013.7
20260506124505 54 320 0.0 7.0 0.00 0.00 0.00 83 1013.6
20260506124003 54 337 2.0 8.0 0.00 0.00 0.00 83 1013.7
20260506123500 54 74 2.0 3.0 0.00 0.00 0.00 82 1013.6
20260506122958 54 63 2.0 5.0 0.00 0.00 0.00 81 1013.4
20260506122454 54 231 2.0 5.0 0.00 0.00 0.00 81 1013.1
20260506121953 54 107 4.0 8.0 0.00 0.00 0.00 80 1013.3
20260506121450 55 161 4.0 4.0 0.00 0.00 0.00 79 1013.6
20260506120946 55 103 1.0 3.0 0.00 0.00 0.00 79 1013.3
20260506120444 55 297 0.0 4.0 0.00 0.00 0.00 79 1013.3
20260506115941 55 285 2.0 5.0 0.00 0.00 0.00 78 1013.4
20260506115439 55 90 0.0 5.0 0.00 0.00 0.00 78 1013.4
20260506114937 55 70 2.0 5.0 0.00 0.00 0.00 78 1013.1
20260506114434 55 170 0.0 5.0 0.00 0.00 0.00 77 1012.8
20260506113933 55 37 2.0 6.0 0.00 0.00 0.00 77 1012.8
20260506113430 56 104 0.0 6.0 0.00 0.00 0.00 77 1012.8
20260506112926 56 90 2.0 5.0 0.00 0.00 0.00 78 1012.7
20260506112425 56 158 3.0 6.0 0.00 0.00 0.00 77 1012.6
20260506111921 56 40 2.0 3.0 0.00 0.00 0.00 77 1012.3
20260506111419 56 157 0.0 5.0 0.00 0.00 0.00 77 1012.3